Regional Weather Roundup
Issued by NWS Upton, NY

Current Version | Previous Version | Graphics & Text | Print | Product List | Glossary Off
Versions: 1 2 3 4 5 6 7 8 9 10 11 12 13 14 15 16 17 18 19 20 21 22 23 24 25 26 27 28 29 30 31 32 33 34 35 36 37 38 39 40 41 42 43 44 45 46 47 48 49 50

690
ASUS41 KOKX 281009
RWROKX

REGIONAL WEATHER ROUNDUP
NATIONAL WEATHER SERVICE NEW YORK NY
600 AM EDT FRI APR 28 2017

NOTE: "FAIR" INDICATES FEW OR NO CLOUDS BELOW 12,000 FEET WITH NO
SIGNIFICANT WEATHER AND/OR OBSTRUCTIONS TO VISIBILITY.

NYZ071-072-176-178-NJZ106-104-281100-
NEW YORK CITY METRO AREA

CITY           SKY/WX    TMP DP  RH WIND       PRES   REMARKS
Central Park   CLOUDY    58  57  97 CALM      29.94R FOG
Wall St Helipt FOG       55  55 100 CALM      29.92R VSB 1/2
Bronx Bot Gard   N/A     57  55  94 SE2       29.93S
LaGuardia APRT FOG       56  55  97 NE5       29.91R VSB 1/4
Kennedy INTL   FOG       56  56 100 CALM      29.92R VSB 3/4
Breezy Point     N/A     52 N/A N/A NE2         N/A
Newark/Liberty FOG       58  58 100 CALM      29.90S VSB 1/2
Teterboro      CLOUDY    60  59  96 NW5       29.91R FOG
$$

NYZ177-179-078>081-281100-
LONG ISLAND NEW YORK

CITY           SKY/WX    TMP DP  RH WIND       PRES   REMARKS
Jones Beach      N/A     54 N/A N/A MISG        N/A
Matinecock PT    N/A     52 N/A N/A CALM        N/A
Farmingdale    CLOUDY    56  55  97 CALM      29.91R FOG
MacArthur/ISP  CLOUDY    57  56  96 S5        29.92R
Shirley        CLOUDY    55  55 100 VRB3      29.93R
Mt Sinai Harb    N/A    N/A N/A N/A S3          N/A
Westhampton    RAIN      55  54  96 SW5       29.95R FOG
East Hampton   MOCLDY    53  53  99 SW3       29.93R
Montauk          N/A     53  52  96 VRB3      29.94R
$$

NYZ052-065-067-281100-
HUDSON VALLEY

CITY           SKY/WX    TMP DP  RH WIND       PRES   REMARKS
White Plains   FOG       57  56  96 CALM      29.91R VSB 3/4
Larchmont Harb   N/A     54 N/A N/A CALM        N/A
Croton O-T Hud   N/A     57 N/A N/A MISG        N/A
Newburgh       CLOUDY    59  59 100 CALM      29.93R FOG
Montgomery     CLOUDY    60  58  92 S3        29.91R
Poughkeepsie   CLOUDY    60  58  92 S3        29.90R
Albany         CLOUDY    61  57  87 S9        29.88R
$$

NJZ001-105-106-008-010-013-015-019>022-104-281100-
NEW JERSEY

CITY           SKY/WX    TMP DP  RH WIND       PRES   REMARKS
Newark/Liberty FOG       58  58 100 CALM      29.90S VSB 1/2
Teterboro      CLOUDY    60  59  96 NW5       29.91R FOG
Caldwell       CLOUDY    59  57  93 CALM      29.92R FOG
Somerville     CLOUDY    59  58  96 N3        29.89S FOG
Linden         CLOUDY    58  57  99 CALM      29.92R FOG
Perth Amboy      N/A     55 N/A N/A S2          N/A
Sussex         CLOUDY    59  59 100 CALM      29.92R
Andover          N/A     56  55  97 CALM      29.92R
Trenton        MOCLDY    58  58 100 N5        29.89S FOG
Millville      CLOUDY    64  63  96 CALM      29.92R
Atlantic City  MOCLDY    64  59  83 SW8       29.92R
Wrightstown    CLOUDY    63  61  94 S8        29.88R
Toms River     LGT RAIN  62  60  93 SW5       29.92R
Belmar         LGT RAIN  63  61  93 CALM      29.89F
$$

PAZ047>061-062-071-281100-
EASTERN PENNSYLVANIA

CITY           SKY/WX    TMP DP  RH WIND       PRES   REMARKS
Philadelphia   MOCLDY    64  62  93 SW5       29.92R
Allentown      PTCLDY    58  55  90 N5        29.91R FOG
Scranton       MOCLDY    65  61  87 SW7       29.91R
$$

CTZ002-004>006-009-010-012-RIZ004-006-007-MAZ004-011-015-281100-
SOUTHERN NEW ENGLAND
 IN CT

CITY           SKY/WX    TMP DP  RH WIND       PRES   REMARKS
Bradley INTL   FOG       58  58 100 S5        29.91S VSB 1/4
Hartford       CLOUDY    58  58 100 S5        29.90S FOG
Danbury        CLOUDY    56  56 100 CALM      29.93R
Wtrbury/Oxford FOG       55  52  88 CALM      29.94R VSB 1/16
Bridgeport     FOG       55  53  93 NE5       29.91R VSB 1/4
Meriden        CLOUDY    59  57  93 CALM      29.92R FOG
New Haven      FOG       54  54 100 S5        29.92R VSB 1/2
Chester        FOG       55  55 100 CALM      29.92R VSB<1/4
Groton         TSTM      54  53  97 SE3       29.92R VSB 1/2
Wilimantic     LGT RAIN  59  58  96 CALM      29.93R VSB 1/2

 IN RI

CITY           SKY/WX    TMP DP  RH WIND       PRES   REMARKS
Providence     FOG       54  54 100 S6        29.93S VSB 1/4
Block Island   LGT RAIN  53  53 100 SW10        N/A  FOG
Westerly       FOG       54  54 100 SE3       29.94R VSB<1/4
 IN MA

CITY           SKY/WX    TMP DP  RH WIND       PRES   REMARKS
Boston         FOG       52  52 100 E6        29.93S VSB 1/2
Worcester      FOG       56  55  97 SW7       29.93R VSB<1/4
Westfield      FOG       58  58 100 CALM      29.90F VSB 3/4
Provincetown   CLOUDY    56  55  97 S13       29.95S
Nantucket      FOG       53  53 100 S8        29.97S VSB<1/4
$$

ANZ330-335-338-340-345-350-353-355-281100-
COASTAL MARINE OBSERVATIONS


STATION/POSITION TIME  SKY/WX   TEMP    WIND        PRES    VSBY  WAVE
                                AIR SEA DIR/SP/G                  HT/PER
                 (UTC)          (F)     (DEG/KT/KT) (MB)    (MI)  (FT/S)
NY HARB ENTRANCE 0950            52 49  230/  6/  6 1013.1          4/ 9
20 S FIRE ISLAND 0950            53 48  200/ 10/ 12 1012.6          5/ 9
GREAT SOUTH BAY  0930            55 57  220/  6/ 10   N/A
23 SSW MONTAUK P 0850            51 46              1013.3          5/ 8
15 E BARNEGAT LI 0930               51                N/A           5/ 9
HUDSON CANYON    0850            54 49  190/ 14/ 14 1013.5          6/10
KINGS POINT      0948            51 50   50/  4/  5 1012.9
EXECUTION ROCKS  NOT AVBL
CENTRAL LI SOUND 0945            46     160/  4/  6   N/A           0
EASTERN LI SOUND NOT AVBL
ROBBINS REEF     0948            56     290/  2/  3 1013.0
$$


>>>>>>>>>>>>>>>>>>>>>>>>>>>> KEY <<<<<<<<<<<<<<<<<<<<<<<<<<<
>                                                          <
>     SKY/WX - Sky Condition/Present Weather               <
>     TMP    - Temperature in Fahrenheit                   <
>     DP     - Dew Point in Fahrenheit                     <
>     RH     - Relative Humidity in Percent                <
>     WIND   - Direction (from) and Speed in MPH           <
>     PRES   - Mean Sea Level Pressure (inches of Hg)      <
>     WCI    - Wind Chill Index                            <
>     VSB    - VISIBILITY IN MILES                         <
>     HX     - HEAT INDEX                                  <
>     TC     - TEMPERATURE IN CELSIUS                      <
>     VRB    - VARIABLE WIND DIRECTION                     <
>                                                          <
>>>>>>>>>>>>>>>>>>>>>>>>>>>> KEY <<<<<<<<<<<<<<<<<<<<<<<<<<<




USA.gov is the U.S. government's official web portal to all federal, state and local government web resources and services.